| time (UTC) | temp F | wind direction | speed MPH | gust MPH | rain 1hr in | rain 24hr in | rain mn in | humidity % | barometer mb |
| 20260505163052 | 80 | 22 | 2.0 | 8.0 | 0.00 | 0.00 | 0.00 | 49 | 1016.5 |
| 20260505161558 | 79 | 280 | 3.0 | 12.0 | 0.00 | 0.00 | 0.00 | 48 | 1016.7 |
| 20260505153108 | 77 | 352 | 1.0 | 10.0 | 0.00 | 0.00 | 0.00 | 52 | 1016.8 |
| 20260505151556 | 77 | 35 | 1.0 | 9.0 | 0.00 | 0.00 | 0.00 | 52 | 1016.9 |
| 20260505130110 | 67 | 33 | 2.0 | 7.0 | 0.00 | 0.00 | 0.00 | 67 | 1017.5 |
| 20260505124614 | 65 | 103 | 2.0 | 11.0 | 0.00 | 0.00 | 0.00 | 68 | 1017.4 |
| 20260505123118 | 64 | 39 | 1.0 | 10.0 | 0.00 | 0.00 | 0.00 | 71 | 1017.4 |
| 20260505121556 | 62 | 30 | 2.0 | 8.0 | 0.00 | 0.00 | 0.00 | 72 | 1017.3 |
| 20260505120107 | 61 | 27 | 1.0 | 5.0 | 0.00 | 0.00 | 0.00 | 74 | 1017.2 |
| 20260505114559 | 61 | 356 | 1.0 | 6.0 | 0.00 | 0.00 | 0.00 | 75 | 1017.2 |
| 20260505113114 | 60 | 87 | 1.0 | 6.0 | 0.00 | 0.00 | 0.00 | 75 | 1017.3 |
| 20260505111601 | 60 | 6 | 1.0 | 8.0 | 0.00 | 0.00 | 0.00 | 76 | 1017.3 |
| 20260505101557 | 59 | 91 | 0.0 | 6.0 | 0.00 | 0.00 | 0.00 | 76 | 1016.5 |
| 20260505100056 | 59 | 41 | 1.0 | 7.0 | 0.00 | 0.00 | 0.00 | 76 | 1016.2 |
| 20260505094553 | 60 | 58 | 2.0 | 7.0 | 0.00 | 0.00 | 0.00 | 75 | 1016.1 |
| 20260505093104 | 60 | 343 | 1.0 | 5.0 | 0.00 | 0.00 | 0.00 | 75 | 1016.0 |
| 20260505091554 | 60 | 18 | 0.0 | 6.0 | 0.00 | 0.00 | 0.00 | 74 | 1016.0 |
| 20260505090055 | 60 | 59 | 0.0 | 7.0 | 0.00 | 0.00 | 0.00 | 73 | 1016.0 |
| 20260505084555 | 61 | 0 | 0.0 | 6.0 | 0.00 | 0.00 | 0.00 | 73 | 1015.9 |
| 20260505083055 | 61 | 5 | 0.0 | 6.0 | 0.00 | 0.00 | 0.00 | 73 | 1015.8 |
| 20260505081553 | 61 | 0 | 1.0 | 7.0 | 0.00 | 0.00 | 0.00 | 72 | 1015.6 |
| 20260505080111 | 61 | 18 | 0.0 | 7.0 | 0.00 | 0.00 | 0.00 | 72 | 1015.7 |
| 20260505074551 | 62 | 74 | 0.0 | 5.0 | 0.00 | 0.00 | 0.00 | 71 | 1015.6 |
| 20260505073100 | 62 | 58 | 1.0 | 5.0 | 0.00 | 0.00 | 0.00 | 71 | 1015.5 |
| 20260505071553 | 62 | 0 | 1.0 | 4.0 | 0.00 | 0.00 | 0.00 | 70 | 1015.5 |
| 20260505070052 | 62 | 91 | 0.0 | 8.0 | 0.00 | 0.00 | 0.00 | 69 | 1015.3 |
| 20260505064558 | 63 | 99 | 1.0 | 7.0 | 0.00 | 0.00 | 0.00 | 69 | 1015.3 |
| 20260505063101 | 63 | 77 | 1.0 | 9.0 | 0.00 | 0.00 | 0.00 | 68 | 1015.4 |
| 20260505061557 | 63 | 79 | 1.0 | 10.0 | 0.00 | 0.00 | 0.00 | 67 | 1015.5 |
| 20260505060058 | 63 | 31 | 2.0 | 9.0 | 0.00 | 0.00 | 0.00 | 67 | 1015.5 |
| 20260505054554 | 63 | 351 | 2.0 | 8.0 | 0.00 | 0.00 | 0.00 | 67 | 1015.7 |
| 20260505053113 | 64 | 34 | 1.0 | 11.0 | 0.00 | 0.00 | 0.00 | 67 | 1015.8 |
| 20260505051552 | 64 | 355 | 1.0 | 7.0 | 0.00 | 0.00 | 0.00 | 67 | 1015.6 |
| 20260505050110 | 64 | 0 | 1.0 | 8.0 | 0.00 | 0.00 | 0.00 | 67 | 1015.8 |
| 20260505041558 | 65 | 58 | 1.0 | 8.0 | 0.00 | 0.00 | 0.00 | 67 | 1015.7 |
| 20260505040054 | 65 | 43 | 1.0 | 8.0 | 0.00 | 0.00 | 0.00 | 66 | 1015.7 |
| 20260505034614 | 65 | 37 | 2.0 | 8.0 | 0.00 | 0.00 | 0.00 | 66 | 1015.6 |
| 20260505033055 | 65 | 6 | 1.0 | 9.0 | 0.00 | 0.00 | 0.00 | 66 | 1015.5 |
| 20260505031555 | 66 | 97 | 2.0 | 9.0 | 0.00 | 0.00 | 0.00 | 66 | 1015.5 |
| 20260505030053 | 66 | 46 | 2.0 | 8.0 | 0.00 | 0.00 | 0.00 | 66 | 1015.4 |
| 20260505024549 | 66 | 19 | 1.0 | 9.0 | 0.00 | 0.00 | 0.00 | 67 | 1015.6 |
| 20260505023058 | 66 | 23 | 2.0 | 8.0 | 0.00 | 0.00 | 0.00 | 67 | 1015.5 |
| 20260505021554 | 66 | 319 | 1.0 | 3.0 | 0.00 | 0.00 | 0.00 | 67 | 1015.3 |
| 20260505020057 | 67 | 41 | 1.0 | 6.0 | 0.00 | 0.00 | 0.00 | 67 | 1015.2 |
| 20260505014553 | 67 | 141 | 2.0 | 9.0 | 0.00 | 0.00 | 0.00 | 67 | 1015.3 |
| 20260505013101 | 67 | 255 | 1.0 | 6.0 | 0.00 | 0.00 | 0.00 | 66 | 1015.0 |
| 20260505011607 | 68 | 16 | 2.0 | 6.0 | 0.00 | 0.00 | 0.00 | 66 | 1015.1 |
| 20260505010053 | 68 | 82 | 1.0 | 5.0 | 0.00 | 0.00 | 0.00 | 65 | 1014.7 |
| 20260505004605 | 69 | 3 | 1.0 | 5.0 | 0.00 | 0.00 | 0.00 | 64 | 1014.5 |
| 20260505003057 | 69 | 0 | 0.0 | 5.0 | 0.00 | 0.00 | 0.00 | 63 | 1014.4 |
| 20260505001617 | 70 | 61 | 1.0 | 6.0 | 0.00 | 0.00 | 0.00 | 62 | 1014.2 |
| 20260505000105 | 71 | 45 | 1.0 | 5.0 | 0.00 | 0.00 | 0.00 | 60 | 1014.1 |
| 20260504234557 | 72 | 37 | 2.0 | 13.0 | 0.00 | 0.00 | 0.00 | 57 | 1013.9 |
| 20260504233111 | 74 | 331 | 1.0 | 8.0 | 0.00 | 0.00 | 0.00 | 51 | 1013.6 |
| 20260504231555 | 75 | 350 | 1.0 | 6.0 | 0.00 | 0.00 | 0.00 | 41 | 1013.4 |
| 20260504230053 | 76 | 6 | 1.0 | 9.0 | 0.00 | 0.00 | 0.00 | 41 | 1013.3 |
| 20260504224554 | 77 | 14 | 1.0 | 11.0 | 0.00 | 0.00 | 0.00 | 40 | 1013.4 |
| 20260504223054 | 78 | 93 | 2.0 | 6.0 | 0.00 | 0.00 | 0.00 | 38 | 1013.4 |
| 20260504221552 | 78 | 50 | 2.0 | 13.0 | 0.00 | 0.00 | 0.00 | 38 | 1013.4 |
| 20260504220054 | 79 | 41 | 3.0 | 10.0 | 0.00 | 0.00 | 0.00 | 37 | 1013.4 |
| 20260504214605 | 80 | 19 | 2.0 | 8.0 | 0.00 | 0.00 | 0.00 | 38 | 1013.3 |
| 20260504213054 | 79 | 34 | 2.0 | 9.0 | 0.00 | 0.00 | 0.00 | 38 | 1013.5 |
| 20260504211552 | 80 | 18 | 2.0 | 16.0 | 0.00 | 0.00 | 0.00 | 37 | 1013.4 |
| 20260504210100 | 80 | 60 | 2.0 | 13.0 | 0.00 | 0.00 | 0.00 | 37 | 1013.4 |
| 20260504204601 | 80 | 46 | 3.0 | 10.0 | 0.00 | 0.00 | 0.00 | 36 | 1013.6 |
| 20260504203100 | 79 | 106 | 4.0 | 14.0 | 0.00 | 0.00 | 0.00 | 36 | 1013.6 |
| 20260504201556 | 80 | 110 | 1.0 | 9.0 | 0.00 | 0.00 | 0.00 | 37 | 1013.6 |
| 20260504194603 | 79 | 43 | 2.0 | 16.0 | 0.00 | 0.00 | 0.00 | 38 | 1013.8 |
| 20260504193056 | 79 | 56 | 2.0 | 11.0 | 0.00 | 0.00 | 0.00 | 38 | 1014.0 |
| 20260504191607 | 79 | 351 | 2.0 | 8.0 | 0.00 | 0.00 | 0.00 | 38 | 1014.2 |
| 20260504190052 | 78 | 359 | 1.0 | 9.0 | 0.00 | 0.00 | 0.00 | 40 | 1014.4 |
| 20260504184555 | 78 | 89 | 2.0 | 7.0 | 0.00 | 0.00 | 0.00 | 40 | 1014.6 |
| 20260504183053 | 77 | 80 | 2.0 | 15.0 | 0.00 | 0.00 | 0.00 | 40 | 1014.7 |
| 20260504181558 | 76 | 99 | 2.0 | 8.0 | 0.00 | 0.00 | 0.00 | 42 | 1015.0 |
| 20260504180051 | 75 | 82 | 3.0 | 12.0 | 0.00 | 0.00 | 0.00 | 42 | 1015.2 |
| 20260504174553 | 75 | 27 | 4.0 | 10.0 | 0.00 | 0.00 | 0.00 | 42 | 1015.3 |
| 20260504173056 | 76 | 60 | 2.0 | 14.0 | 0.00 | 0.00 | 0.00 | 42 | 1015.5 |
| 20260504171555 | 76 | 89 | 3.0 | 13.0 | 0.00 | 0.00 | 0.00 | 42 | 1015.7 |